"Pseudo-MPEC" for ZTF0NzR

Created 2022 Aug 22 17:23:18 UT using Find_Orb

Click here for an explanation of pseudo-MPECs

 
 Astrometry: 
     ZTF0NzR* C2022 08 05.48206005 47 46.181+54 28 03.50   ~85G7 19.75rUNEOCPI41
     ZTF0NzR  C2022 08 05.48454105 47 46.349+54 28 05.99   ~85G7 20.08rUNEOCPI41
     ZTF0NzR  C2022 08 05.48701005 47 46.610+54 28 07.61   ~85G7 19.87rUNEOCPI41
     ZTF0NzR  C2022 08 05.48950005 47 46.800+54 28 09.52   ~85G7 20.37rUNEOCPI41

Station data:
(I41) Palomar Mountain--ZTF  (N33.357338 W116.859780)  US/California.
   Observers B. T. Bolin, Z. T. F. Collaboration. Measurers B. T. Bolin,
   Z.-Y. Lin, F. J. Masci. 1.2-m f/2.4 Schmidt.

Orbital elements:  ZTF0NzR
   Perihelion 2022 Sep 10.24057 +/- 164 TT =  5:46:25 (JD 2459832.74057)
Epoch 2022 Aug  5.0 TT = JDT 2459796.5   Earth MOID: 0.0000   AutoNEOCP
M 327.45748028 +/- 90               (J2000 ecliptic)
n   0.89795835 +/- 0.859            Peri.   60.89568 +/- 110
a   1.06405787 +/- 0.678            Node   290.67321 +/- 120
e   0.0815414 +/- 0.204             Incl.    2.73763 +/- 40
P   1.10/400.90d           H 22.1   G  0.15   U 12.6  SR
q 0.97729306 +/- 0.861    Q 1.15082268 +/- 12.7
From 4 observations 2022 Aug. 5 (10.7 min); mean residual 0".18
Residuals in arcseconds: 
220805 I41  .15+  .20-    220805 I41  .15+  .03-    
220805 I41  .28-  .31+    220805 I41  .00   .09-    

Ephemerides (geocentric):
Date (UTC) HH   RA             Dec           delta  r     elong  mag " sig PA
---- --------  ------------   ------------  ------ ------ -----  --- --------
2022 08 22 17  06 22 40.464   +52 36 44.42  .06320 .98161  60.3 20.7  40d  47
2022 08 22 18  06 22 45.878   +52 36 23.26  .06326 .98159  60.3 20.7  40d  47
2022 08 22 19  06 22 51.292   +52 36 02.08  .06333 .98157  60.3 20.7  40d  47
2022 08 22 20  06 22 56.708   +52 35 40.89  .06339 .98155  60.3 20.7  40d  47
2022 08 22 21  06 23 02.125   +52 35 19.68  .06346 .98154  60.3 20.7  40d  47
2022 08 22 22  06 23 07.543   +52 34 58.45  .06352 .98152  60.3 20.7  40d  47
2022 08 22 23  06 23 12.962   +52 34 37.20  .06358 .98150  60.4 20.7  40d  47
2022 08 23 00  06 23 18.383   +52 34 15.94  .06365 .98148  60.4 20.7  40d  47
2022 08 23 01  06 23 23.805   +52 33 54.66  .06371 .98146  60.4 20.7  40d  47
2022 08 23 02  06 23 29.227   +52 33 33.36  .06378 .98144  60.4 20.7  40d  47
2022 08 23 03  06 23 34.651   +52 33 12.04  .06384 .98142  60.4 20.7  40d  47
2022 08 23 04  06 23 40.077   +52 32 50.71  .06390 .98140  60.5 20.7  40d  47
2022 08 23 05  06 23 45.503   +52 32 29.36  .06397 .98139  60.5 20.7  40d  47
2022 08 23 06  06 23 50.930   +52 32 07.99  .06403 .98137  60.5 20.7  40d  47
2022 08 23 07  06 23 56.359   +52 31 46.61  .06410 .98135  60.5 20.7  40d  47
2022 08 23 08  06 24 01.789   +52 31 25.20  .06416 .98133  60.5 20.7  41d  47
2022 08 23 09  06 24 07.220   +52 31 03.78  .06422 .98131  60.5 20.7  41d  47
2022 08 23 10  06 24 12.652   +52 30 42.35  .06429 .98129  60.6 20.7  41d  47
2022 08 23 11  06 24 18.085   +52 30 20.89  .06435 .98128  60.6 20.7  41d  47
2022 08 23 12  06 24 23.519   +52 29 59.42  .06441 .98126  60.6 20.7  41d  47
2022 08 23 13  06 24 28.954   +52 29 37.93  .06448 .98124  60.6 20.7  41d  47
2022 08 23 14  06 24 34.391   +52 29 16.43  .06454 .98122  60.6 20.7  41d  47
2022 08 23 15  06 24 39.828   +52 28 54.91  .06461 .98120  60.7 20.7  41d  47
2022 08 23 16  06 24 45.267   +52 28 33.37  .06467 .98119  60.7 20.7  41d  47
2022 08 23 17  06 24 50.707   +52 28 11.81  .06473 .98117  60.7 20.7  41d  47
2022 08 23 18  06 24 56.148   +52 27 50.23  .06480 .98115  60.7 20.7  41d  47
2022 08 23 19  06 25 01.590   +52 27 28.64  .06486 .98113  60.7 20.7  41d  47
2022 08 23 20  06 25 07.033   +52 27 07.03  .06493 .98111  60.7 20.7  41d  47
2022 08 23 21  06 25 12.477   +52 26 45.41  .06499 .98110  60.8 20.7  41d  47
2022 08 23 22  06 25 17.922   +52 26 23.77  .06505 .98108  60.8 20.7  41d  47
2022 08 23 23  06 25 23.368   +52 26 02.11  .06512 .98106  60.8 20.7  41d  47
2022 08 24 00  06 25 28.815   +52 25 40.43  .06518 .98104  60.8 20.7  41d  47
2022 08 24 01  06 25 34.263   +52 25 18.73  .06524 .98102  60.8 20.7  41d  47
2022 08 24 02  06 25 39.713   +52 24 57.02  .06531 .98101  60.9 20.7  41d  47
2022 08 24 03  06 25 45.163   +52 24 35.29  .06537 .98099  60.9 20.7  41d  47
2022 08 24 04  06 25 50.614   +52 24 13.55  .06544 .98097  60.9 20.7  41d  47
2022 08 24 05  06 25 56.067   +52 23 51.78  .06550 .98095  60.9 20.7  41d  47
2022 08 24 06  06 26 01.520   +52 23 30.00  .06556 .98094  60.9 20.7  41d  48
2022 08 24 07  06 26 06.975   +52 23 08.21  .06563 .98092  60.9 20.7  41d  48
2022 08 24 08  06 26 12.430   +52 22 46.39  .06569 .98090  61.0 20.7  42d  48
2022 08 24 09  06 26 17.887   +52 22 24.56  .06575 .98088  61.0 20.7  42d  48
2022 08 24 10  06 26 23.344   +52 22 02.71  .06582 .98087  61.0 20.7  42d  48
2022 08 24 11  06 26 28.803   +52 21 40.85  .06588 .98085  61.0 20.7  42d  48
2022 08 24 12  06 26 34.262   +52 21 18.96  .06594 .98083  61.0 20.7  42d  48
2022 08 24 13  06 26 39.723   +52 20 57.06  .06601 .98082  61.1 20.7  42d  48
2022 08 24 14  06 26 45.184   +52 20 35.15  .06607 .98080  61.1 20.7  42d  48
2022 08 24 15  06 26 50.646   +52 20 13.21  .06614 .98078  61.1 20.7  42d  48
2022 08 24 16  06 26 56.110   +52 19 51.26  .06620 .98076  61.1 20.7  42d  48